This is the latest recevied weather packets stored in our database for station/object 4S6DRJ-13. If no packets are shown the sender has not sent any weather packets the latest 10 day(s).
| Time | Temp. | Humidity | Pressure | Rain* | Wind** | Luminosity | Snow |
|---|---|---|---|---|---|---|---|
| 1788252958 | 30.56° C | 72% | 1007.9 hPa | 0 mm | 1.79 m/s, 208° | 341 W/m² | - |
| 1788252897 | 30.56° C | 71% | 1007.9 hPa | 0 mm | 2.24 m/s, 278° | 769 W/m² | - |
| 1788252836 | 30.56° C | 72% | 1007.9 hPa | 0 mm | 1.34 m/s, 217° | 386 W/m² | - |
| 1788252775 | 30.56° C | 72% | 1007.8 hPa | 0 mm | 1.79 m/s, 223° | 375 W/m² | - |
| 1788252715 | 30.56° C | 72% | 1007.9 hPa | 0 mm | 4.02 m/s, 216° | 1112 W/m² | - |
| 1788252654 | 31.11° C | 73% | 1007.8 hPa | 0 mm | 0.89 m/s, 219° | 1114 W/m² | - |
| 1788252593 | 31.11° C | 71% | 1008.1 hPa | 0 mm | 5.36 m/s, 223° | 323 W/m² | - |
| 1788252531 | 31.11° C | 72% | 1007.8 hPa | 0 mm | 2.24 m/s, 240° | 376 W/m² | - |
| 1788252471 | 31.11° C | 72% | 1007.9 hPa | 0 mm | 0.45 m/s, 319° | 416 W/m² | - |
| 1788252410 | 30.56° C | 71% | 1007.8 hPa | 0 mm | 2.68 m/s, 221° | 344 W/m² | - |
| 1788252349 | 30.56° C | 70% | 1007.9 hPa | 0 mm | 2.68 m/s, 205° | 386 W/m² | - |
| 1788252288 | 30.56° C | 69% | 1007.9 hPa | 0 mm | 0.89 m/s, 259° | 244 W/m² | - |
| 1788252227 | 30.56° C | 69% | 1008 hPa | 0 mm | 1.34 m/s, 293° | 342 W/m² | - |
| 1788252166 | 30.56° C | 70% | 1008 hPa | 0 mm | 2.24 m/s, 317° | 1111 W/m² | - |
| 1788252105 | 30.56° C | 71% | 1007.9 hPa | 0 mm | 1.34 m/s, 97° | 1105 W/m² | - |
| 1788252043 | 30.56° C | 71% | 1007.9 hPa | 0 mm | 2.68 m/s, 203° | 414 W/m² | - |
| 1788251982 | 31.11° C | 71% | 1008 hPa | 0 mm | 2.68 m/s, 161° | 330 W/m² | - |
| 1788251922 | 31.11° C | 71% | 1008 hPa | 0 mm | 1.79 m/s, 235° | 318 W/m² | - |
| 1788251860 | 30.56° C | 72% | 1008 hPa | 0 mm | 2.68 m/s, 279° | 347 W/m² | - |
| 1788251800 | 30.56° C | 72% | 1007.9 hPa | 0 mm | 3.13 m/s, 206° | 1119 W/m² | - |
| 1788251738 | 30.56° C | 71% | 1008 hPa | 0 mm | 1.79 m/s, 229° | 381 W/m² | - |
| 1788251677 | 30.56° C | 71% | 1007.9 hPa | 0 mm | 1.79 m/s, 20° | 365 W/m² | - |
| 1788251617 | 30.56° C | 71% | 1008.2 hPa | 0 mm | 3.13 m/s, 238° | 427 W/m² | - |
| 1788251556 | 30.56° C | 72% | 1008.1 hPa | 0 mm | 3.13 m/s, 231° | 1120 W/m² | - |
| 1788251495 | 31.11° C | 72% | 1008.1 hPa | 0 mm | 0.89 m/s, 192° | 1116 W/m² | - |
* Rain latest hour (hover to see other rain measurements)
** Current wind speed in m/s (hover to see current wind gust speed)